Powrót do katalogu

STPSAT-7

AktywnyNaukaVLEO
NORAD 68630·PAYLOAD·🇺🇸 United States

Wystrzelony Apr 7, 2026 z Vandenberg Space Force Base

Loading…

Następne Przeloty (najbliższe 24 godziny)

TLE

ŚwieżeSource: Space-Track

Epoka: Sep 14, 2026, 03:09 UTC

1 68630U 26074D   26257.13126327  .00004980  00000-0  20343-3 0  9995
2 68630  60.0211 196.5504 0035749  86.5560 273.9609 15.25426693 24345

Śledź STPSAT-7 w czasie rzeczywistym z AllMySat

Download on the App Store